Regional Weather Roundup
Issued by NWS

Home | Current Version | Previous Version | Text Only | Print | Product List | Glossary Off
Versions: 1 2 3 4 5 6 7 8 9 10 11 12 13 14 15 16 17 18 19 20 21 22 23 24 25 26 27 28 29 30 31 32 33 34 35 36 37 38 39 40 41 42 43 44 45 46 47 48 49 50

000
ASUS45 KCYS 252110
RWRWY

WYOMING REGIONAL WEATHER ROUNDUP
NATIONAL WEATHER SERVICE CHEYENNE WY
300 PM MDT FRI JUL 25 2014

NOTE:  "FAIR" INDICATES FEW OR NO CLOUDS BELOW 12,000 FEET
WITH NO SIGNIFICANT WEATHER AND/OR OBSTRUCTIONS TO VISIBILITY.

WYZ001-252200-
YELLOWSTONE NATIONAL PARK

CITY           SKY/WX    TMP DP  RH WIND       PRES   REMARKS
LK YELLOWSTONE   N/A     67  13  12 VRB5G17   30.25S
W YELLOWSTONE  NOT AVBL

$$
WYZ002>013-054>058-071-098>099-252200-
NORTHERN WYOMING

CITY           SKY/WX    TMP DP  RH WIND       PRES   REMARKS
JACKSON        SUNNY     79  25  13 SW17G23   30.15F
CODY           NOT AVBL
GREYBULL       SUNNY     89  26  10 CALM      29.88F
WORLAND        SUNNY     88  35  15 N6        29.90F
SHERIDAN       SUNNY     88  50  27 NE9       29.88F
BUFFALO        SUNNY     87  43  21 NE9       29.94F
GILLETTE       SUNNY     90  41  18 CALM      29.90F
HULETT         FAIR      81  50  34 MISG      29.94
NEWCASTLE      FAIR      86  37  17 MISG      29.95

$$
WYZ014>020-022>026-101>103-252200-
CENTRAL WYOMING

CITY           SKY/WX    TMP DP  RH WIND       PRES   REMARKS
BIG PINEY      SUNNY     85  29  13 W20       30.18F
PINEDALE       CLEAR     82  28  14 W14G29    30.18S
DUBOIS         FAIR      77  23  13 W24G33    30.15F
LANDER         SUNNY     92  25   9 W13G31    29.98F
RIVERTON       SUNNY     93  23   8 W23G32    29.99F
CASPER         SUNNY     96  28   9 W20G29    29.96F HX  90
DOUGLAS        MOSUNNY   90  55  30 SE15      29.97F

$$
WYZ021-027>030-104>119-252200-
SOUTHERN WYOMING

CITY           SKY/WX    TMP DP  RH WIND       PRES   REMARKS
EVANSTON       SUNNY     86  28  12 W25G39    30.21F
KEMMERER       CLEAR    N/A N/A N/A W24G38    30.21S
FORT BRIDGER   FAIR      90  27  10 W24G31    30.22S
ROCK SPRINGS   MOSUNNY   91  27  10 W28G38    30.14F
DIXON          FAIR      91  36  14 SW13G28   30.16S
RAWLINS        PTSUNNY   90  30  11 SW20G32   30.13F
SARATOGA       FAIR      81  43  26 NW15      30.19S
LARAMIE        PTSUNNY   83  39  21 W16       30.18F
CHEYENNE       LGT RAIN  81  45  28 S20G32    30.11F
TORRINGTON     MOSUNNY   87  49  26 SE15      29.95F
PINE BLUFFS    FAIR      91  50  24 SE5       30.04F

$$



USA.gov is the U.S. government's official web portal to all federal, state and local government web resources and services.